Location: Chiroubles
(46.1812°N, 4.6660°E)
Time: 03:38:25
(UTC+00:00)

USA 234 - Pass Details

Date: 15 August 2020
Orbit: 1101 x 1107 km, 123.0° (Epoch: 27 September)

Event Time Altitude Azimuth Distance (km) Brightness Sun altitude
Exits shadow 20:28:05 12° 90° (E) 2,801 4.9 -15.5°
Maximum altitude 20:33:49 47° 21° (NNE) 1,429 4.0 -16.2°
Drops below altitude 10° 20:40:00 10° 310° (NW) 2,964 6.9 -17.0°
Sets 20:42:34 0° 305° (NW) 3,924 7.9 -17.4°
